Regional Weather Roundup
Issued by NWS

Home | Current Version | Previous Version | Graphics & Text | Print | Product List | Glossary On
Versions: 1 2 3 4 5 6 7 8 9 10 11 12 13 14 15 16 17 18 19 20 21 22 23 24 25 26 27 28 29 30 31 32 33 34 35 36 37 38 39 40 41 42 43 44 45 46 47 48 49 50
000
ASUS45 KBOI 020110
RWRID

IDAHO REGIONAL WEATHER ROUNDUP
NATIONAL WEATHER SERVICE BOISE ID
700 PM MDT TUE SEP 01 2015

NOTE: "FAIR" INDICATES FEW OR NO CLOUDS BELOW 12000 FEET
WITH NO SIGNIFICANT WEATHER AND/OR OBSTRUCTIONS TO VISIBILITY

IDZ012-014-020200-
SOUTHWEST IDAHO


CITY           SKY/WX    TMP DP  RH WIND       PRES   REMARKS
BOISE          PTSUNNY   86  42  21 NW7       29.75F
CALDWELL         N/A     88  43  20 NE5       29.75F
MOUNTAIN HOME  PTSUNNY   89  39  17 SW10      29.75S
$$

IDZ016-017-020200-
SOUTHCENTRAL IDAHO


CITY           SKY/WX    TMP DP  RH WIND       PRES   REMARKS
BURLEY         MOSUNNY   85  41  21 N5        29.83F
JEROME         SUNNY     84  49  29 N3        29.83F
TWIN FALLS     SUNNY     86  32  14 NE3       29.84F
$$

IDZ019>023-020200-
SOUTHEAST IDAHO


CITY           SKY/WX    TMP DP  RH WIND       PRES   REMARKS
IDAHO FALLS    MOSUNNY   83  31  15 S8        29.90F
POCATELLO      MOSUNNY   87  28  12 CALM      29.88F
REXBURG        MOSUNNY   82  28  14 S12       29.91F
$$

IDZ006-010-011-018-031-032-020200-
CENTRAL IDAHO MOUNTAINS


CITY           SKY/WX    TMP DP  RH WIND       PRES   REMARKS
MCCALL         PTSUNNY   75  35  23 S15       29.89F
HAILEY         MOSUNNY   79  32  18 SW6       29.93F
STANLEY          N/A     73  22  14 CALM      30.01S
SALMON         PTSUNNY   82  43  24 N7        29.73S
CHALLIS        PTSUNNY   82  23  11 W13G22    29.86R
$$

IDZ002-004-006-007-026-020200-
NORTHERN IDAHO


CITY           SKY/WX    TMP DP  RH WIND       PRES   REMARKS
LEWISTON       MOSUNNY   81  40  23 NW13      29.72S
LOWELL           N/A     71  56  58 CALM      29.68S
COEUR D`ALENE  PTSUNNY   73  34  23 S13       29.76S
MULLAN PASS    PTSUNNY   59  27  29 SW9       29.93F
$$



USA.gov is the U.S. government's official web portal to all federal, state and local government web resources and services.